INNOSAT-2 (43738 NORAD) Tracking and Keplerian Element Data

This shows tracking and keplerian element data for the satellite.

Feedback or suggestion? Click here.




ElementValue
Catalog43738
NameINNOSAT-2
Epoch Orbit173
Epoch Day344.49327924
Epoch Year2018
RAAN49.5243
Inclination97.4836
Eccentricity0.0023625
Argument of Perigee295.6148
Mean Anonmoly64.265
Mean Motion15.27722461
Decay Rate2.768E-05
L11 43738U 18096V 18344.49327924 .00002768 00000-0 10425-3 0 9997
L22 43738 97.4836 49.5243 0023625 295.6148 64.2650 15.27722461 1735

Live tracking and technical data element details for INNOSAT-2 (NORAD 43738). INNOSAT-2 can be tracked NOW for your location showing map with azimuth and elevation plus other details from your city location.

Track the satellite on the map from your city or location and see movement details for azimuth, elevation, latitude, longitude, range, height, and movement on the map or in text.







IsCatalogInMostPopularTable: catalog: 43738, numindb: 5
Update: records affected: 1



GetName: 43738 INNOSAT-2

Hit Count: updated at: Tue, 11 Dec 2018 03:16:21 GMT